When you browse on this site, cookies collect data to enhance your experience and personalize the content and advertising you see.
Visit our Privacy Policy to learn more. By continuing to use the site, you agree to this use of cookies and data.
  • In Latvia
  • List of Countries
  • For 7 days
  • Water Temperature
  • Satellite Maps
  • Weather Map
  • Weather Widgets
  • user-avatar
    Login

    Hourly Weather Dunkowice

    Today, 19 February, Tuesday

    Time Temperature Precipitation Wind Pressure Humidity
    00:00 +4°C° 0 mm 2 mps 749 mmHg 86%
    01:00 +3°C° 0 mm 2 mps 749 mmHg 87%
    02:00 +3°C° 0 mm 2 mps 749 mmHg 87%
    03:00 +3°C° 0 mm 2 mps 749 mmHg 87%
    04:00 +2°C° 0 mm 2 mps 749 mmHg 86%
    05:00 +2°C° 0 mm 2 mps 748 mmHg 86%
    06:00 +2°C° 0 mm 2 mps 748 mmHg 86%
    07:00 +2°C° 0 mm 2 mps 748 mmHg 86%
    08:00 +2°C° 0 mm 2 mps 748 mmHg 86%
    09:00 +4°C° 0 mm 2 mps 747 mmHg 79%
    10:00 +6°C° 0 mm 2 mps 747 mmHg 72%
    11:00 +7°C° 0 mm 3 mps 747 mmHg 65%
    12:00 +9°C° 0 mm 3 mps 747 mmHg 61%
    13:00 +10°C° 0 mm 4 mps 747 mmHg 57%
    14:00 +11°C° 0 mm 4 mps 746 mmHg 53%
    15:00 +11°C° 0 mm 4 mps 746 mmHg 55%
    16:00 +10°C° 0 mm 4 mps 746 mmHg 58%
    17:00 +9°C° 0 mm 3 mps 745 mmHg 61%
    18:00 +7°C° 0 mm 4 mps 745 mmHg 66%
    19:00 +6°C° 0 mm 4 mps 745 mmHg 70%
    20:00 +5°C° 0 mm 4 mps 745 mmHg 74%
    21:00 +5°C° 0 mm 4 mps 745 mmHg 75%
    22:00 +4°C° 0 mm 4 mps 745 mmHg 77%
    23:00 +3°C° 0 mm 5 mps 745 mmHg 78%

    Tomorrow, 20 February, Wednesday

    Time Temperature Precipitation Wind Pressure Humidity
    00:00 +4°C° 0 mm 4 mps 745 mmHg 80%
    01:00 +4°C° 0 mm 4 mps 745 mmHg 81%
    02:00 +3°C° 0 mm 4 mps 746 mmHg 83%
    03:00 +3°C° 0.3 mm 4 mps 745 mmHg 83%
    04:00 +4°C° 0.3 mm 4 mps 745 mmHg 84%
    05:00 +3°C° 0.3 mm 5 mps 745 mmHg 85%
    06:00 +2°C° 0.1 mm 5 mps 745 mmHg 87%
    07:00 +3°C° 0.1 mm 4 mps 746 mmHg 90%
    08:00 +3°C° 0.1 mm 4 mps 746 mmHg 92%
    09:00 +2°C° 0.1 mm 5 mps 746 mmHg 88%
    10:00 +3°C° 0.1 mm 6 mps 746 mmHg 83%
    11:00 +4°C° 0.1 mm 7 mps 747 mmHg 79%
    12:00 +4°C° 0.1 mm 6 mps 747 mmHg 76%
    13:00 +4°C° 0.1 mm 6 mps 747 mmHg 73%
    14:00 +4°C° 0.1 mm 6 mps 747 mmHg 70%
    15:00 +4°C° 0.1 mm 6 mps 747 mmHg 69%
    16:00 +4°C° 0.1 mm 6 mps 747 mmHg 68%
    17:00 +5°C° 0.1 mm 5 mps 747 mmHg 68%
    18:00 +5°C° 0.1 mm 5 mps 748 mmHg 70%
    19:00 +3°C° 0.1 mm 5 mps 748 mmHg 73%
    20:00 +3°C° 0.1 mm 5 mps 749 mmHg 76%
    21:00 +3°C° 0.1 mm 5 mps 749 mmHg 77%
    22:00 +3°C° 0.1 mm 5 mps 749 mmHg 77%
    23:00 +4°C° 0.1 mm 4 mps 749 mmHg 78%

    Day after tomorrow, 21 February, Thursday

    Time Temperature Precipitation Wind Pressure Humidity
    00:00 +3°C° 0 mm 4 mps 749 mmHg 78%
    01:00 +3°C° 0 mm 4 mps 749 mmHg 78%
    02:00 +3°C° 0 mm 4 mps 750 mmHg 78%
    03:00 +3°C° 0 mm 4 mps 749 mmHg 80%
    04:00 +3°C° 0 mm 4 mps 749 mmHg 82%
    05:00 +3°C° 0 mm 4 mps 749 mmHg 84%
    06:00 +2°C° 0 mm 5 mps 749 mmHg 84%
    07:00 +2°C° 0 mm 5 mps 749 mmHg 85%
    08:00 +2°C° 0 mm 5 mps 749 mmHg 85%
    09:00 +3°C° 0.1 mm 5 mps 749 mmHg 80%
    10:00 +4°C° 0.1 mm 6 mps 749 mmHg 74%
    11:00 +5°C° 0.1 mm 6 mps 749 mmHg 69%
    12:00 +5°C° 0.1 mm 6 mps 749 mmHg 69%
    13:00 +5°C° 0.1 mm 6 mps 749 mmHg 70%
    14:00 +5°C° 0.1 mm 6 mps 749 mmHg 70%
    15:00 +5°C° 0.2 mm 6 mps 748 mmHg 73%
    16:00 +4°C° 0.2 mm 6 mps 748 mmHg 76%
    17:00 +4°C° 0.2 mm 6 mps 747 mmHg 80%
    18:00 +4°C° 0.6 mm 6 mps 747 mmHg 82%
    19:00 +4°C° 0.6 mm 6 mps 747 mmHg 84%
    20:00 +4°C° 0.6 mm 6 mps 747 mmHg 87%
    21:00 +4°C° 0.4 mm 6 mps 747 mmHg 88%
    22:00 +4°C° 0.4 mm 6 mps 747 mmHg 89%
    23:00 +4°C° 0.4 mm 6 mps 747 mmHg 89%

    22 February, Friday

    Time Temperature Precipitation Wind Pressure Humidity
    00:00 +4°C° 0.3 mm 6 mps 748 mmHg 90%
    01:00 +4°C° 0.3 mm 6 mps 748 mmHg 90%
    02:00 +5°C° 0.3 mm 5 mps 748 mmHg 91%
    03:00 +3°C° 0.7 mm 6 mps 748 mmHg 90%
    04:00 +3°C° 0.7 mm 6 mps 749 mmHg 89%
    05:00 +2°C° 0.7 mm 7 mps 749 mmHg 88%
    06:00 +1°C° 0.1 mm 6 mps 750 mmHg 85%
    07:00 -1°C° 0.1 mm 6 mps 751 mmHg 81%
    08:00 -3°C° 0.1 mm 6 mps 752 mmHg 78%
    09:00 -3°C° 0 mm 6 mps 754 mmHg 72%
    10:00 -3°C° 0 mm 6 mps 755 mmHg 67%
    11:00 -2°C° 0 mm 5 mps 756 mmHg 62%
    12:00 -3°C° 0 mm 6 mps 756 mmHg 59%
    13:00 -3°C° 0 mm 6 mps 757 mmHg 57%
    14:00 -2°C° 0 mm 6 mps 758 mmHg 54%
    15:00 -3°C° 0 mm 6 mps 758 mmHg 54%
    16:00 -3°C° 0 mm 6 mps 759 mmHg 54%
    17:00 -4°C° 0 mm 6 mps 759 mmHg 54%
    18:00 -4°C° 0 mm 5 mps 760 mmHg 54%
    19:00 -5°C° 0 mm 5 mps 761 mmHg 53%
    20:00 -4°C° 0 mm 4 mps 762 mmHg 53%
    21:00 -4°C° 0 mm 4 mps 762 mmHg 51%
    22:00 -4°C° 0 mm 4 mps 763 mmHg 49%
    23:00 -4°C° 0 mm 4 mps 763 mmHg 46%

    23 February, Saturday

    Time Temperature Precipitation Wind Pressure Humidity
    00:00 -4°C° 0 mm 3 mps 763 mmHg 45%
    01:00 -4°C° 0 mm 3 mps 764 mmHg 44%
    02:00 -4°C° 0 mm 3 mps 764 mmHg 43%
    03:00 -4°C° 0 mm 3 mps 764 mmHg 44%
    04:00 -4°C° 0 mm 2 mps 764 mmHg 44%
    05:00 -4°C° 0 mm 2 mps 763 mmHg 44%
    06:00 -4°C° 0 mm 2 mps 764 mmHg 44%
    07:00 -4°C° 0 mm 2 mps 764 mmHg 44%
    08:00 -4°C° 0 mm 2 mps 764 mmHg 44%
    09:00 -3°C° 0 mm 2 mps 764 mmHg 39%
    10:00 -2°C° 0 mm 2 mps 763 mmHg 35%
    11:00 -1°C° 0 mm 2 mps 763 mmHg 30%
    12:00 -1°C° 0 mm 2 mps 762 mmHg 30%
    13:00 -1°C° 0 mm 3 mps 762 mmHg 30%
    14:00 0°C° 0 mm 3 mps 761 mmHg 30%
    15:00 -1°C° 0 mm 3 mps 761 mmHg 35%
    16:00 -1°C° 0 mm 3 mps 760 mmHg 40%
    17:00 -1°C° 0 mm 3 mps 760 mmHg 45%
    18:00 -1°C° 0 mm 2 mps 759 mmHg 48%
    19:00 -1°C° 0 mm 2 mps 759 mmHg 51%
    20:00 -2°C° 0 mm 2 mps 759 mmHg 54%
    21:00 -1°C° 0 mm 2 mps 759 mmHg 52%
    22:00 -1°C° 0 mm 2 mps 759 mmHg 51%
    23:00 -1°C° 0 mm 2 mps 759 mmHg 50%

    24 February, Sunday

    Time Temperature Precipitation Wind Pressure Humidity
    00:00 -1°C° 0 mm 2 mps 759 mmHg 51%
    01:00 -1°C° 0 mm 2 mps 758 mmHg 53%
    02:00 -1°C° 0 mm 2 mps 758 mmHg 54%
    03:00 -1°C° 0 mm 2 mps 758 mmHg 59%
    04:00 -2°C° 0 mm 2 mps 758 mmHg 64%
    05:00 0°C° 0 mm 1 mps 758 mmHg 68%
    06:00 -2°C° 0 mm 2 mps 758 mmHg 71%
    07:00 -2°C° 0 mm 2 mps 758 mmHg 73%
    08:00 -2°C° 0 mm 2 mps 758 mmHg 76%
    09:00 -1°C° 0 mm 2 mps 758 mmHg 76%
    10:00 +1°C° 0 mm 2 mps 758 mmHg 77%
    11:00 +1°C° 0 mm 3 mps 758 mmHg 77%
    12:00 +2°C° 0 mm 3 mps 758 mmHg 80%
    13:00 +2°C° 0 mm 3 mps 757 mmHg 83%
    14:00 +2°C° 0 mm 3 mps 757 mmHg 86%
    15:00 +2°C° 0 mm 3 mps 756 mmHg 88%
    16:00 +2°C° 0 mm 3 mps 756 mmHg 89%
    17:00 +4°C° 0 mm 2 mps 755 mmHg 91%
    18:00 +2°C° 0 mm 3 mps 755 mmHg 92%
    19:00 +1°C° 0 mm 3 mps 754 mmHg 93%
    20:00 +1°C° 0 mm 3 mps 754 mmHg 94%
    21:00 +1°C° 0 mm 3 mps 753 mmHg 94%
    22:00 0°C° 0 mm 3 mps 753 mmHg 94%
    23:00 -1°C° 0 mm 4 mps 752 mmHg 94%
    Show more